TimeEDT,TemperatureF,Dew PointF,Humidity,Sea Level PressureIn,VisibilityMPH,Wind Direction,Wind SpeedMPH,Gust SpeedMPH,PrecipitationIn,Events,Conditions,WindDirDegrees,DateUTC
12:54 AM,33.1,26.1,75,30.32,10.0,Calm,Calm,-,N/A,,Clear,0,2013-03-10 05:54:00
1:54 AM,30.9,25.0,79,30.32,10.0,Calm,Calm,-,N/A,,Clear,0,2013-03-10 06:54:00
3:54 AM,30.0,25.0,82,30.30,10.0,Calm,Calm,-,N/A,,Clear,0,2013-03-10 07:54:00
4:54 AM,30.9,26.1,82,30.31,10.0,Calm,Calm,-,N/A,,Clear,0,2013-03-10 08:54:00
5:54 AM,28.9,24.1,82,30.32,10.0,Calm,Calm,-,N/A,,Clear,0,2013-03-10 09:54:00
6:54 AM,27.0,21.9,81,30.32,10.0,Calm,Calm,-,N/A,,Clear,0,2013-03-10 10:54:00
8:54 AM,37.9,30.9,76,30.35,10.0,Calm,Calm,-,N/A,,Clear,0,2013-03-10 12:54:00
9:54 AM,46.9,34.0,61,30.35,10.0,East,6.9,-,N/A,,Clear,80,2013-03-10 13:54:00
10:54 AM,51.1,32.0,48,30.35,10.0,East,6.9,-,N/A,,Clear,90,2013-03-10 14:54:00
11:54 AM,55.0,30.9,40,30.35,10.0,ENE,8.1,-,N/A,,Clear,70,2013-03-10 15:54:00
12:54 PM,57.9,28.9,33,30.35,10.0,East,5.8,-,N/A,,Clear,90,2013-03-10 16:54:00
1:54 PM,57.9,30.0,35,30.33,10.0,East,4.6,-,N/A,,Clear,80,2013-03-10 17:54:00
2:54 PM,57.9,33.1,39,30.32,10.0,Variable,5.8,-,N/A,,Clear,0,2013-03-10 18:54:00
3:54 PM,57.0,34.0,42,30.30,10.0,ESE,9.2,-,N/A,,Clear,120,2013-03-10 19:54:00
4:54 PM,55.9,35.1,45,30.30,10.0,East,9.2,-,N/A,,Clear,100,2013-03-10 20:54:00
5:54 PM,53.1,28.0,38,30.30,10.0,ESE,9.2,-,N/A,,Clear,120,2013-03-10 21:54:00
6:54 PM,48.9,36.0,61,30.32,10.0,ESE,9.2,-,N/A,,Clear,120,2013-03-10 22:54:00
7:54 PM,44.1,37.0,76,30.31,10.0,ESE,8.1,-,N/A,,Clear,120,2013-03-10 23:54:00
8:54 PM,42.1,37.0,82,30.32,10.0,ESE,5.8,-,N/A,,Clear,120,2013-03-11 00:54:00
10:01 PM,39.2,35.6,87,30.32,10.0,Calm,Calm,-,N/A,,Mostly Cloudy,0,2013-03-11 02:01:00
10:10 PM,41.0,37.4,87,30.32,10.0,Calm,Calm,-,N/A,,Mostly Cloudy,0,2013-03-11 02:10:00
10:54 PM,39.9,36.0,86,30.32,10.0,ESE,4.6,-,N/A,,Overcast,110,2013-03-11 02:54:00
11:39 PM,37.4,33.8,87,30.31,9.0,Calm,Calm,-,N/A,,Overcast,0,2013-03-11 03:39:00
11:49 PM,37.4,33.8,87,30.30,9.0,Calm,Calm,-,N/A,,Overcast,0,2013-03-11 03:49:00
11:54 PM,37.9,33.1,83,30.31,8.0,Calm,Calm,-,N/A,,Overcast,0,2013-03-11 03:54:00
12:29 AM,37.4,35.6,93,30.31,1.8,Calm,Calm,-,N/A,,Overcast,0,2013-03-11 04:29:00
12:40 AM,37.4,33.8,87,30.30,0.5,Calm,Calm,-,N/A,Fog,Fog,0,2013-03-11 04:40:00
12:47 AM,35.6,33.8,93,30.29,0.2,ESE,3.5,-,N/A,Fog,Fog,110,2013-03-11 04:47:00
12:54 AM,36.0,33.1,89,30.30,0.2,ESE,5.8,-,N/A,Fog,Fog,110,2013-03-11 04:54:00